Location: Lane
(33.5226°N, 79.8788°W)
Time: 03:17:52
(UTC+00:00)

Explorer 7 - Pass Details

Date: 10 October 2022
Orbit: 481 x 665 km, 50.3° (Epoch: 01 December)

Event Time Altitude Azimuth Distance (km) Brightness Sun altitude
Rises 13:09:38 0° 249° (WSW) 2,933 10.1 21.0°
Reaches altitude 10° 13:12:03 10° 257° (WSW) 2,046 9.3 21.5°
Maximum altitude 13:16:29 38° 326° (NW) 1,001 8.0 22.3°
Drops below altitude 10° 13:21:01 10° 35° (NE) 2,089 10.0 23.2°
Sets 13:23:31 0° 43° (NE) 3,002 10.8 23.6°
